Friday Harbor, WA

5:08 AM PST on December 13, 2019 (GMT -0800)
Friday Harbor

Weather History for KFHR - November, 2019

Change the Weather History Date:

Saturday, November 16, 2019

  Actual Average Record
Temperature  
Mean Temperature 49 °F -  
Max Temperature 52 °F 47 °F 57 °F (1999)
Min Temperature 46 °F 38 °F 28 °F (2000)
Degree Days  
Heating Degree Days 16    
Moisture  
Dew Point 47 °F    
Average Humidity 91    
Maximum Humidity 97    
Minimum Humidity 80    
Precipitation  
Precipitation 0.07 in - - ()
Sea Level Pressure  
Sea Level Pressure 30.23 in    
Wind  
Wind Speed 5 mph (ESE)    
Max Wind Speed 14 mph    
Max Gust Speed 20 mph    
Visibility 9 miles    
Events Rain    
Averages and records for this station are not official NWS values.
T = Trace of Precipitation, MM = Missing Value Source: NWS Daily Summary

Daily Weather History Graph

Daily Weather History Graph

Search for Another Location

Airport or City:

Astronomy

Nov. 16, 2019 Rise Set
Actual Time 7:21 AM PST 4:31 PM PST
Civil Twilight 6:47 AM PST 5:06 PM PST
Nautical Twilight 6:08 AM PST 5:44 PM PST
Astronomical Twilight 5:31 AM PST 6:21 PM PST
Moon 8:01 PM PST (11/16) 11:29 AM PST (11/16)
Length of Visible Light 10h 19m
Length of Day
9h 10m
Waning Gibbous, 81% of the Moon is Illuminated
Nov 16
Waning Gibbous
Nov 19
Last Quarter
Nov 26
New
Dec 3
First Quarter
Dec 11
Full

Hourly Weather History & Observations

Time (PST) Temp. Dew Point Humidity Pressure Visibility Wind Dir Wind Speed Gust Speed Precip Events Conditions
12:53 AM 46.0 °F 45.0 °F 96% 30.29 in 10.0 mi Calm Calm - N/A   Clear
1:53 AM 46.0 °F 45.0 °F 96% 30.30 in 10.0 mi Calm Calm - N/A   Mostly Cloudy
2:53 AM 46.9 °F 46.0 °F 97% 30.31 in 7.0 mi Calm Calm - N/A   Mostly Cloudy
3:00 AM 46.0 °F 45.0 °F 96% 30.30 in 6.0 mi Calm Calm - N/A   Mostly Cloudy
3:11 AM 46.9 °F 46.0 °F 97% 30.31 in 7.0 mi Calm Calm - N/A   Mostly Cloudy
3:53 AM 46.9 °F 46.0 °F 97% 30.30 in 5.0 mi Calm Calm - N/A   Overcast
4:53 AM 48.0 °F 46.9 °F 96% 30.29 in 10.0 mi SE 6.9 mph - N/A   Overcast
5:53 AM 48.0 °F 46.9 °F 96% 30.29 in 10.0 mi ESE 6.9 mph - N/A   Overcast
6:53 AM 48.0 °F 46.9 °F 96% 30.29 in 10.0 mi ESE 5.8 mph - N/A   Overcast
7:25 AM 48.9 °F 46.9 °F 93% 30.29 in 10.0 mi SE 6.9 mph - N/A   Overcast
7:53 AM 48.9 °F 46.9 °F 93% 30.29 in 10.0 mi ESE 10.4 mph - N/A   Overcast
8:03 AM 48.9 °F 46.9 °F 93% 30.28 in 10.0 mi ESE 10.4 mph - N/A   Overcast
8:43 AM 48.9 °F 46.9 °F 93% 30.28 in 10.0 mi ESE 10.4 mph - 0.00 in   Overcast
8:53 AM 48.9 °F 46.9 °F 93% 30.29 in 10.0 mi ESE 8.1 mph - 0.00 in   Overcast
9:16 AM 50.0 °F 46.9 °F 89% 30.28 in 10.0 mi ESE 8.1 mph - 0.00 in Rain Light Rain
9:53 AM 50.0 °F 46.9 °F 89% 30.28 in 10.0 mi ESE 6.9 mph - 0.00 in   Overcast
11:53 AM 51.1 °F 48.0 °F 89% 30.24 in 10.0 mi ESE 10.4 mph - N/A   Overcast
12:07 PM 51.1 °F 46.9 °F 86% 30.23 in 10.0 mi ESE 9.2 mph - N/A   Overcast
12:53 PM 51.1 °F 46.9 °F 86% 30.22 in 10.0 mi ESE 9.2 mph - N/A   Overcast
1:53 PM 52.0 °F 46.0 °F 80% 30.21 in 10.0 mi ESE 8.1 mph - N/A   Overcast
2:53 PM 52.0 °F 46.0 °F 80% 30.22 in 10.0 mi ESE 3.5 mph - 0.00 in   Overcast
3:53 PM 51.1 °F 46.0 °F 83% 30.19 in 10.0 mi ESE 10.4 mph - 0.00 in Rain Light Rain
4:53 PM 51.1 °F 46.9 °F 86% 30.20 in 10.0 mi SE 9.2 mph - 0.00 in Rain Light Rain
5:53 PM 50.0 °F 48.0 °F 93% 30.19 in 7.0 mi SE 8.1 mph - 0.02 in Rain Light Rain
6:53 PM 50.0 °F 48.0 °F 93% 30.16 in 10.0 mi ESE 10.4 mph - 0.00 in   Overcast
7:53 PM 51.1 °F 48.0 °F 89% 30.14 in 10.0 mi ESE 11.5 mph 18.4 mph N/A   Overcast
8:01 PM 51.1 °F 48.0 °F 89% 30.14 in 10.0 mi SE 9.2 mph - N/A   Overcast
8:10 PM 51.1 °F 48.0 °F 89% 30.14 in 10.0 mi SE 11.5 mph - N/A   Overcast
8:53 PM 51.1 °F 48.0 °F 89% 30.14 in 10.0 mi ESE 11.5 mph - N/A   Overcast
9:28 PM 52.0 °F 46.9 °F 83% 30.13 in 10.0 mi ESE 13.8 mph 19.6 mph 0.00 in   Overcast
9:53 PM 52.0 °F 46.9 °F 83% 30.13 in 10.0 mi ESE 10.4 mph - 0.00 in   Overcast
10:53 PM 51.1 °F 48.0 °F 89% 30.11 in 5.0 mi East 5.8 mph - 0.01 in Rain Light Rain
11:53 PM 51.1 °F 48.9 °F 92% 30.10 in 6.0 mi ESE 6.9 mph - 0.04 in Rain Rain